Location: Fort Worth, Tx
(32.7431°N, 97.3695°W)
Time: 05:27:03
(UTC-05:00)

Vanguard 3 - Visible Passes

Search period start: 28 January 2023 00:00
Search period end: 07 February 2023 00:00
Orbit: 509 x 3253 km, 33.4° (Epoch: 27 January)

Date Brightness Start Highest point End Pass type
(mag) Time Alt. Az. Time Alt. Az. Time Alt. Az.
28 Jan 11.0 00:48:47 10° W 00:51:24 19° W 00:51:24 19° W visible
28 Jan 10.7 03:35:06 28° SE 03:35:06 28° SE 03:40:31 10° SE visible
28 Jan 10.3 05:39:35 31° SW 05:39:35 31° SW 05:50:25 10° S visible
28 Jan 9.8 19:10:54 10° SSW 19:18:30 30° SE 19:30:14 10° E visible
28 Jan 9.3 21:19:58 10° WSW 21:31:06 73° SSE 21:35:56 53° E visible
28 Jan 10.1 23:32:20 10° W 23:40:23 47° W 23:40:23 47° W visible
29 Jan11.402:24:15ESE02:24:15ESE01:44:50WNWvisible
29 Jan 10.4 04:28:43 34° S 04:28:43 34° S 04:36:29 10° SSE visible
29 Jan 10.8 06:33:12 15° WSW 06:34:24 15° SW 06:41:52 10° SSW visible
29 Jan 9.3 20:05:37 10° SW 20:14:39 53° SSE 20:24:53 22° E visible
29 Jan 9.4 22:16:34 10° WSW 22:29:05 88° SSE 22:29:20 87° SE visible
30 Jan 10.8 00:29:48 10° W 00:33:47 24° W 00:33:47 24° W visible
30 Jan 11.0 03:17:51 20° SE 03:17:51 20° SE 03:21:08 10° SE visible
30 Jan 10.5 05:22:20 27° SSW 05:22:20 27° SSW 05:30:50 10° S visible
30 Jan 9.2 21:01:29 10° WSW 21:11:43 76° SSE 21:18:15 43° E visible
30 Jan 9.8 23:13:37 10° W 23:22:42 56° W 23:22:42 56° W visible
31 Jan11.302:06:57ESE02:06:57ESE01:27:09WNWvisible
31 Jan 10.8 04:11:26 25° SSE 04:11:26 25° SSE 04:16:57 10° SSE visible
31 Jan 10.9 06:15:54 13° SW 06:15:54 13° SW 06:21:12 10° SSW visible
31 Jan 9.1 19:47:07 10° SW 19:55:23 56° SSE 20:07:08 17° E visible
31 Jan 9.3 21:58:02 10° W 22:09:36 90° SSE 22:11:35 75° E visible
01 Feb 10.5 00:10:54 10° W 00:16:02 31° W 00:16:02 31° W visible
01 Feb 11.3 03:00:30 13° SE 03:00:30 13° SE 03:01:31 10° SE visible
01 Feb 10.8 05:04:58 21° SSW 05:04:58 21° SSW 05:10:58 10° S visible
01 Feb 9.0 20:43:03 10° WSW 20:52:27 79° SSE 21:00:27 35° E visible
01 Feb 9.6 22:54:58 10° W 23:04:53 67° W 23:04:53 67° W visible
02 Feb 11.1 01:08:21 10° WNW 01:09:20 13° WNW 01:09:20 13° WNW visible
02 Feb 11.0 03:54:00 18° SSE 03:54:00 18° SSE 03:57:10 10° SSE visible
02 Feb 11.1 05:58:28 11° SW 05:58:28 11° SW 05:59:30 10° SW visible
02 Feb 8.9 19:28:42 10° SW 19:36:15 60° SSE 19:49:17 11° ENE visible
02 Feb 9.1 21:39:34 10° W 21:50:14 89° N 21:53:44 63° E visible
02 Feb 10.3 23:52:04 10° W 23:58:10 37° W 23:58:10 37° W visible
03 Feb11.502:42:59SE02:42:59SE02:02:37WNWvisible
03 Feb 11.0 04:47:27 16° S 04:47:27 16° S 04:50:45 10° S visible
03 Feb 8.9 20:24:40 10° WSW 20:33:17 83° SSE 20:42:33 27° E visible
03 Feb 9.3 22:36:22 10° W 22:47:00 79° WNW 22:47:00 79° WNW visible
04 Feb 11.0 00:49:20 10° WNW 00:51:26 17° W 00:51:26 17° W visible
04 Feb 11.3 03:36:24 12° SSE 03:36:24 12° SSE 03:37:06 10° SSE visible
04 Feb 9.0 21:21:08 10° W 21:30:56 88° N 21:35:49 52° E visible
04 Feb 10.0 23:33:18 10° W 23:40:15 44° W 23:40:15 44° W visible
05 Feb11.502:25:17SE02:25:17SE01:44:42WNWvisible
05 Feb 11.3 04:29:44 11° S 04:29:44 11° S 04:30:09 10° S visible
05 Feb 8.7 20:06:20 10° WSW 20:14:13 86° SSE 20:24:37 21° E visible
05 Feb 9.2 22:17:49 10° W 22:28:56 90° S 22:29:04 89° E visible
06 Feb 10.7 00:30:26 10° WNW 00:33:30 22° W 00:33:30 22° W visible
06 Feb 8.9 21:02:45 10° W 21:11:45 87° N 21:17:53 42° E visible
06 Feb 9.7 23:14:36 10° W 23:22:19 52° W 23:22:19 52° W visible
